Location: Austin
(30.3000°N, 97.7500°W)
Time: 06:54:29
(UTC-05:00)

Cosmos 2315 Rocket - Pass Details

Date: 16 June 2025
Orbit: 966 x 1001 km, 82.9° (Epoch: 07 July)

Event Time Altitude Azimuth Distance (km) Brightness Sun altitude
Rises 05:01:33 0° 353° (N) 3,692 7.5 -16.4°
Reaches altitude 10° 05:04:03 10° 353° (N) 2,746 6.8 -16.0°
Maximum altitude 05:10:22 86° 266° (W) 998 4.0 -15.0°
Drops below altitude 10° 05:16:42 10° 178° (S) 2,753 6.0 -13.9°
Sets 05:19:14 0° 178° (S) 3,702 6.7 -13.5°
